Bandon Weather Center

Moon Phase Calendar



Online Cameras

 


      

Current Conditions in Bandon
10/27/2020 11:31:21 AM

56°F
Feels Like 52
Clear
Humidity
54%
Pressure
30.36"
Wind
3.4 mph (NE)
Dew Point
40°F
UV Index
3/10 (Moderate)
Visibility
6 mi

Hourly Forecast

Date & Time Tue, Oct 27
11:00 AM
Tue, Oct 27
12:00 PM
Tue, Oct 27
1:00 PM
Tue, Oct 27
2:00 PM
Tue, Oct 27
3:00 PM
Tue, Oct 27
4:00 PM
Tue, Oct 27
5:00 PM
Tue, Oct 27
6:00 PM
Tue, Oct 27
7:00 PM
Tue, Oct 27
8:00 PM
Tue, Oct 27
9:00 PM
Tue, Oct 27
10:00 PM
Tue, Oct 27
11:00 PM
Wed, Oct 28
12:00 AM
Wed, Oct 28
1:00 AM
Wed, Oct 28
2:00 AM
Wed, Oct 28
3:00 AM
Wed, Oct 28
4:00 AM
Wed, Oct 28
5:00 AM
Wed, Oct 28
6:00 AM
Wed, Oct 28
7:00 AM
Wed, Oct 28
8:00 AM
Wed, Oct 28
9:00 AM
Wed, Oct 28
10:00 AM
Wed, Oct 28
11:00 AM
Wed, Oct 28
12:00 PM
Wed, Oct 28
1:00 PM
Wed, Oct 28
2:00 PM
Wed, Oct 28
3:00 PM
Wed, Oct 28
4:00 PM
Wed, Oct 28
5:00 PM
Wed, Oct 28
6:00 PM
Wed, Oct 28
7:00 PM
Wed, Oct 28
8:00 PM
Wed, Oct 28
9:00 PM
Wed, Oct 28
10:00 PM
Wed, Oct 28
11:00 PM
Thu, Oct 29
12:00 AM
Thu, Oct 29
1:00 AM
Thu, Oct 29
2:00 AM
Thu, Oct 29
3:00 AM
Thu, Oct 29
4:00 AM
Thu, Oct 29
5:00 AM
Thu, Oct 29
6:00 AM
Thu, Oct 29
7:00 AM
Thu, Oct 29
8:00 AM
Thu, Oct 29
9:00 AM
Thu, Oct 29
10:00 AM
Condition
Clear

Clear

Clear

Clear

Clear

Clear

Clear

Clear

Clear

Clear

Clear

Clear

Clear

Clear

Clear

Clear

Clear

Clear

Clear

Clear

Clear

Clear

Clear

Clear

Clear

Clear

Clear

Clear

Clear

Clear

Clear

Clear

Clear

Clear

Clear

Clear

Clear

Clear

Clear

Clear

Clear

Clear

Clear

Clear

Clear

Clear

Clear

Clear
Temperature 56°F56°F58°F59°F58°F58°F57°F55°F54°F53°F52°F51°F51°F50°F50°F49°F49°F49°F49°F48°F48°F48°F49°F52°F55°F58°F59°F59°F59°F58°F58°F55°F54°F54°F53°F53°F53°F53°F52°F52°F51°F51°F51°F51°F51°F51°F52°F56°F
Feels Like 45°F44°F45°F46°F45°F44°F44°F44°F43°F43°F43°F42°F42°F42°F41°F41°F40°F40°F40°F40°F39°F39°F40°F44°F47°F49°F49°F49°F49°F49°F48°F47°F46°F46°F47°F48°F47°F47°F46°F46°F45°F45°F45°F45°F45°F45°F47°F50°F
Cloudiness 1%1%0%0%0%0%0%0%0%0%0%0%0%0%0%0%0%0%0%0%0%0%0%0%0%0%0%0%0%0%0%0%0%0%0%0%0%0%0%0%0%0%0%0%0%0%0%0%
Visibility 6 mi6 mi6 mi6 mi6 mi6 mi6 mi6 mi6 mi6 mi6 mi6 mi6 mi6 mi6 mi6 mi6 mi6 mi6 mi6 mi6 mi6 mi6 mi6 mi6 mi6 mi6 mi6 mi6 mi6 mi6 mi6 mi6 mi6 mi6 mi6 mi6 mi6 mi6 mi6 mi6 mi6 mi6 mi6 mi6 mi6 mi6 mi6 mi
Precipitation 0%0%0%0%0%0%0%0%0%0%0%0%0%0%0%0%0%0%0%0%0%0%0%0%0%0%0%0%0%0%0%0%0%0%0%0%0%0%0%0%0%0%0%0%0%0%0%0%
Humidity 54%52%51%53%56%60%66%74%81%81%82%83%81%81%81%82%82%83%83%83%83%83%78%72%64%60%61%62%64%68%73%80%84%86%86%83%81%79%79%78%78%78%78%78%77%76%72%64%
Dew Point 40°F39°F40°F42°F43°F44°F46°F47°F48°F48°F47°F46°F45°F45°F45°F44°F44°F44°F44°F43°F43°F43°F43°F43°F44°F44°F45°F46°F47°F48°F49°F50°F50°F50°F49°F48°F47°F46°F46°F45°F45°F45°F45°F44°F44°F44°F44°F44°F
Pressure 30.36"30.33"30.3"30.24"30.21"30.21"30.21"30.21"30.21"30.21"30.21"30.21"30.21"30.21"30.21"30.18"30.18"30.18"30.18"30.18"30.18"30.18"30.18"30.18"30.18"30.15"30.15"30.12"30.12"30.12"30.12"30.12"30.12"30.15"30.15"30.15"30.15"30.15"30.15"30.12"30.12"30.12"30.12"30.12"30.12"30.12"30.12"30.12"
Wind Speed 16.5 mph17 mph18.4 mph19.2 mph20.7 mph21 mph20.4 mph19.5 mph18.4 mph16 mph14.7 mph14.3 mph13.1 mph11.9 mph13.7 mph13.4 mph13.1 mph13.6 mph13.2 mph12.7 mph13.2 mph13.1 mph12.6 mph11.8 mph12.1 mph13.8 mph16 mph16.6 mph16.8 mph16.7 mph16.4 mph15.8 mph14.8 mph13 mph10.9 mph9.4 mph8.7 mph8.9 mph9.2 mph8.7 mph8.9 mph9.1 mph8.8 mph8.7 mph8.3 mph8.2 mph7.2 mph6.4 mph
Wind
Direction
28°
NNE
23°
NNE
17°
NNE
10°
N

N

N
11°
N
14°
NNE
17°
NNE
21°
NNE
22°
NNE
30°
NNE
36°
NE
38°
NE
32°
NNE
34°
NE
36°
NE
31°
NNE
36°
NE
36°
NE
37°
NE
38°
NE
40°
NE
37°
NE
29°
NNE
16°
NNE

N

N

N

N

N
11°
N
16°
NNE
21°
NNE
27°
NNE
34°
NE
38°
NE
38°
NE
43°
NE
45°
NE
40°
NE
41°
NE
43°
NE
45°
NE
44°
NE
41°
NE
45°
NE
36°
NE

Daily Forecast

Date High Low Precip. Humidity
Today
Oct 27

Clear
58 °F
46 °F
0%
53%
Wednesday
Oct 28

Clear
59 °F
48 °F
0%
62%
Thursday
Oct 29

Clear
59 °F
51 °F
0%
63%
Friday
Oct 30

Clear
59 °F
49 °F
0%
74%
Saturday
Oct 31

Clear
56 °F
51 °F
0%
75%
Sunday
Nov 1

Clear
58 °F
50 °F
0%
68%
Monday
Nov 2

Clouds
61 °F
52 °F
0%
41%
Tuesday
Nov 3

Rain
59 °F
55 °F
95%
78%
Wednesday
Nov 4

Rain
55 °F
49 °F
80%
83%
Thursday
Nov 5

Clouds
56 °F
47 °F
0%
62%
Friday
Nov 6

Clouds
60 °F
53 °F
0%
72%
Saturday
Nov 7

Rain
62 °F
55 °F
100%
50%
Sunday
Nov 8

Rain
57 °F
54 °F
100%
91%
Monday
Nov 9

Rain
54 °F
48 °F
28%
81%
Tuesday
Nov 10

Clouds
52 °F
43 °F
0%
57%
Wednesday
Nov 11

Clouds
53 °F
45 °F
0%
65%


Temperature 8-14 Day Outlook



Precipitation 8-14 Day Outlook




Quick Links
Bandon News
Bandon Photos
Bandon Videos




About Us
Contact Us
Site Map
Search Site
Advertise With Us
   
Bandon.USCoast.info
THE BANDON WEBSITE

Copyright 2020, Coastal Town
Privacy    |    Legal